Tracking 18957 objects as of 22-Jan-2018
HD Live streaming from Space Station
objects crossing your sky now

CHINASAT 5B (SINOSAT 1)

Track CHINASAT 5B (SINOSAT 1) now!
CHINASAT 5B (SINOSAT 1) is classified as:


NORAD ID: 25404
Int'l Code: 1998-044A
Perigee: 36,050.1 km
Apogee: 36,152.9 km
Inclination: 4.8 °
Period: 1,451.8 minutes
Semi major axis: 42472 km
RCS: 25.1188 m2 (large)
Launch date: July 18, 1998
Source: People's Republic of China (PRC)
Launch site: Xichang Space Center, China (XSC)

11 C-band, broadcasting, business services, direct-to-home TV broadcasting, telecommunications, VSAT networks; Asia Pacific region.
aabbcc
Your satellite tracking list
Your tracking list is empty




NASA's NSSDC Master Catalog

Two Line Element Set (TLE):
1 25404U 98044A   18020.98955913 -.00000011 +00000-0 +00000-0 0  9993
2 25404 004.8228 064.8992 0012105 190.9968 308.0089 00.99183913071469
Source of the keplerian elements: AFSPC